User: anonymous   Login
Location: Newark
(34.6501°N, 117.8502°W)
Time: 10:48:18
(UTC+00:00)
Language:

Hubble Space Telescope - Orbit

View from above orbital plane
View from above orbital plane
View from above satellite
View from above satellite

Ground track
Ground track

The orbit data is extracted from the following two-line orbital elements,

1 20580U 90037B   21295.71867429  .00000838  00000-0  39611-4 0  9990
2 20580  28.4706 302.9236 0002643 359.4905 163.9148 15.09791677530247
Epoch (UTC): 22 October 2021 17:14:53
Eccentricity: 0.0002643
inclination: 28.4706°
perigee height: 535 km
apogee height: 538 km
right ascension of ascending node: 302.9236°
argument of perigee: 359.4905°
revolutions per day: 15.09791677
mean anomaly at epoch: 163.9148°
orbit number at epoch: 53024

The dashed part of the orbit path shows where the satellite is in the earth's shadow,  

DLR